Date String (YYYY-MM-DD hh:mm:ss) UTC,Instrument flags,absolute air pressure of the measurement (hPa),sample flow rate (lpm),inlet stack bypass flow (lpm),air temperature of the measurement (°C),ambient temperature measured by the external sensor (°C),aerosol sample conditioner tube jacket temperature (°C),OPC LED temperature (°C),internal box temperature (°C),relative humidity of the measurement (%),span deviation,mass concentration of particles derived from Lorenz-Mie calculation of OPC scattering (μg/m³),mass concentration of particles derived from Lorenz-Mie calculation of OPC scattering (μg/m³),mass concentration of particles derived from Lorenz-Mie calculation of OPC scattering (μg/m³)
DateTimeUTC,F1_M11,P_M11,Q1_M11,Q2_M11,T1_M11,T2_M11,T3_M11,T4_M11,T5_M11,U1_M11,ZSPAN_M11,X0_M11,X2_M11,X1_M11
2023-09-11 06:00:00,SystemResetWarning,0838.2,5.01,000.00,029.1,025.7,000.0,037.6,030.0,34.6,-000.2,0014.41,0008.68,0008.06
2023-09-11 06:01:00,SystemResetWarning,0838.2,4.99,000.00,029.0,026.0,000.0,037.6,030.0,34.7,-000.2,0014.44,0008.72,0008.08
2023-09-11 06:02:00,SystemResetWarning,0838.2,4.99,000.00,029.0,026.3,000.0,037.5,030.1,34.5,-000.1,0014.01,0008.74,0008.10
2023-09-11 06:03:00,SystemResetWarning,0838.2,5.01,000.00,029.0,026.6,000.0,037.5,030.1,34.3,-000.4,0013.90,0008.75,0008.09
2023-09-11 06:04:00,SystemResetWarning,0838.2,5.00,000.00,029.0,026.8,000.0,037.5,030.2,34.2,-000.5,0013.89,0008.76,0008.08
2023-09-11 06:05:00,SystemResetWarning,0838.2,4.99,000.00,029.0,026.9,000.0,037.5,030.2,34.3,-000.6,0013.67,0008.72,0008.04
2023-09-11 06:06:00,SystemResetWarning,0838.2,4.99,000.00,029.0,027.1,000.0,037.5,030.2,34.5,-000.6,0013.55,0008.70,0008.04
2023-09-11 06:07:00,SystemResetWarning,0838.2,5.01,000.00,029.0,027.2,000.0,037.4,030.3,34.5,-000.5,0013.52,0008.70,0008.06
2023-09-11 06:08:00,SystemResetWarning,0838.2,5.01,000.00,029.0,027.3,000.0,037.4,030.3,34.3,-000.6,0013.46,0008.68,0008.06
2023-09-11 06:09:00,SystemResetWarning,0838.2,4.99,000.00,029.0,027.4,000.0,037.4,030.4,34.3,-000.8,0013.45,0008.67,0008.06
2023-09-11 06:10:00,SystemResetWarning,0838.3,4.99,000.00,029.0,027.4,000.0,037.4,030.4,33.9,-000.5,0013.45,0008.68,0008.05
2023-09-11 06:11:00,SystemResetWarning,0838.2,5.02,000.00,029.0,027.5,000.0,037.4,030.5,33.6,-000.4,0013.56,0008.73,0008.06
2023-09-11 06:12:00,SystemResetWarning,0838.2,5.00,000.00,029.0,027.5,000.0,037.4,030.5,33.6,-000.3,0013.52,0008.72,0008.06
2023-09-11 06:13:00,SystemResetWarning,0838.2,4.99,000.00,029.1,027.6,000.0,037.4,030.5,33.5,-000.3,0013.52,0008.73,0008.07
2023-09-11 06:14:00,SystemResetWarning,0838.2,4.99,000.00,029.1,027.6,000.0,037.4,030.5,33.5,-000.4,0013.55,0008.75,0008.10
2023-09-11 06:15:00,SystemResetWarning,0838.2,5.01,000.00,029.1,027.6,000.0,037.4,030.6,33.4,-000.4,0013.53,0008.72,0008.09
2023-09-11 06:16:00,SystemResetWarning,0838.2,5.01,000.00,029.1,027.7,000.0,037.4,030.6,33.3,-000.6,0013.49,0008.70,0008.09
2023-09-11 06:17:00,SystemResetWarning,0838.1,5.01,000.00,029.1,027.7,000.0,037.4,030.7,33.2,-000.7,0013.43,0008.68,0008.08
2023-09-11 06:18:00,SystemResetWarning,0838.2,4.99,000.00,029.2,027.7,000.0,037.4,030.7,32.9,-000.8,0013.31,0008.63,0008.05
2023-09-11 06:19:00,SystemResetWarning,0838.1,4.99,000.00,029.2,027.8,000.0,037.4,030.7,32.9,-000.8,0013.26,0008.60,0008.03
2023-09-11 06:20:00,SystemResetWarning,0838.2,5.00,000.00,029.2,027.8,000.0,037.4,030.7,32.7,-000.8,0013.22,0008.59,0008.03
2023-09-11 06:21:00,SystemResetWarning,0838.2,5.00,000.00,029.2,027.8,000.0,037.5,030.8,32.7,-000.9,0013.22,0008.58,0008.04
2023-09-11 06:22:00,SystemResetWarning,0838.1,5.01,000.00,029.2,027.8,000.0,037.5,030.8,32.6,-001.0,0013.03,0008.46,0007.97
2023-09-11 06:23:00,SystemResetWarning,0838.2,5.01,000.00,029.2,027.9,000.0,037.5,030.8,32.7,-001.1,0013.00,0008.39,0007.87
2023-09-11 06:24:00,SystemResetWarning,0838.2,4.99,000.00,029.3,027.9,000.0,037.5,030.8,32.8,-001.2,0012.75,0008.25,0007.72
2023-09-11 06:25:00,SystemResetWarning,0838.2,4.99,000.00,029.3,027.9,000.0,037.5,030.8,32.8,-001.1,0012.64,0008.18,0007.66
2023-09-11 06:26:00,SystemResetWarning,0838.2,4.99,000.00,029.3,027.0,000.0,037.5,030.6,32.7,-000.8,0012.49,0008.10,0007.60
2023-09-11 06:27:00,SystemResetWarning,0838.2,5.00,000.00,029.2,025.3,000.0,037.4,030.2,32.8,-000.7,0012.33,0008.01,0007.52
2023-09-11 06:28:00,SystemResetWarning,0838.2,5.00,000.00,029.1,024.6,000.0,037.3,030.0,32.8,-000.7,0012.23,0007.91,0007.41
2023-09-11 06:29:00,SystemResetWarning,0838.1,5.01,000.00,028.9,024.7,000.0,037.3,029.8,33.2,-000.6,0012.16,0007.85,0007.33
2023-09-11 06:30:00,SystemResetWarning,0838.0,5.01,000.00,028.8,025.1,000.0,037.3,029.8,33.4,-000.6,0012.02,0007.76,0007.25
2023-09-11 06:31:00,SystemResetWarning,0838.0,5.00,000.00,028.7,025.4,000.0,037.2,029.8,33.6,-000.6,0011.88,0007.66,0007.16
2023-09-11 06:32:00,SystemResetWarning,0838.0,5.00,000.00,028.7,025.8,000.0,037.2,029.8,33.7,-000.6,0011.83,0007.60,0007.09
2023-09-11 06:33:00,SystemResetWarning,0838.0,5.00,000.00,028.7,026.1,000.0,037.2,029.9,33.8,-000.4,0011.82,0007.58,0007.06
2023-09-11 06:34:00,SystemResetWarning,0838.1,5.00,000.00,028.6,026.4,000.0,037.2,029.9,34.0,-000.7,0011.71,0007.54,0007.06
2023-09-11 06:35:00,SystemResetWarning,0838.0,5.00,000.00,028.6,026.6,000.0,037.2,030.0,34.0,-000.8,0011.77,0007.58,0007.12
2023-09-11 06:36:00,SystemResetWarning,0838.1,5.00,000.00,028.6,026.8,000.0,037.2,030.0,34.1,-000.8,0011.76,0007.58,0007.12
2023-09-11 06:37:00,SystemResetWarning,0838.0,5.00,000.00,028.6,026.9,000.0,037.1,030.1,34.2,-001.1,0011.78,0007.58,0007.12
2023-09-11 06:38:00,SystemResetWarning,0838.1,5.01,000.00,028.7,027.0,000.0,037.1,030.1,34.2,-001.0,0011.71,0007.54,0007.07
2023-09-11 06:39:00,SystemResetWarning,0838.0,5.00,000.00,028.7,027.1,000.0,037.1,030.2,34.1,-000.9,0011.60,0007.47,0007.02
2023-09-11 06:40:00,SystemResetWarning,0838.0,4.99,000.00,028.7,027.2,000.0,037.1,030.2,34.1,-000.8,0011.50,0007.36,0006.90
2023-09-11 06:41:00,SystemResetWarning,0838.0,4.99,000.00,028.7,027.3,000.0,037.1,030.2,34.0,-000.9,0011.40,0007.26,0006.82
2023-09-11 06:42:00,SystemResetWarning,0838.0,5.00,000.00,028.7,027.3,000.0,037.1,030.3,34.0,-000.8,0011.37,0007.24,0006.80
2023-09-11 06:43:00,SystemResetWarning,0837.9,5.00,000.00,028.8,027.4,000.0,037.1,030.3,33.9,-000.7,0011.31,0007.20,0006.76
2023-09-11 06:44:00,SystemResetWarning,0838.0,5.00,000.00,028.8,027.4,000.0,037.1,030.3,34.0,-000.7,0011.19,0007.14,0006.71
2023-09-11 06:45:00,SystemResetWarning,0838.0,5.01,000.00,028.8,027.5,000.0,037.1,030.4,33.9,-000.5,0011.01,0007.02,0006.61
2023-09-11 06:46:00,SystemResetWarning,0838.0,5.00,000.00,028.8,027.5,000.0,037.1,030.4,34.0,-000.3,0010.66,0006.82,0006.44
2023-09-11 06:47:00,SystemResetWarning,0837.9,5.00,000.00,028.8,027.5,000.0,037.1,030.4,34.0,-000.3,0010.38,0006.63,0006.28
2023-09-11 06:48:00,SystemResetWarning,0837.9,4.99,000.00,028.9,027.6,000.0,037.2,030.5,34.1,-000.1,0010.18,0006.49,0006.13
2023-09-11 06:49:00,SystemResetWarning,0837.9,4.99,000.00,028.9,027.6,000.0,037.2,030.5,34.1,0000.2,0010.16,0006.44,0006.05
2023-09-11 06:50:00,SystemResetWarning,0837.9,5.00,000.00,028.9,027.6,000.0,037.2,030.5,34.1,0000.2,0010.10,0006.42,0006.05
2023-09-11 06:51:00,SystemResetWarning,0838.0,5.01,000.00,028.9,027.6,000.0,037.2,030.5,33.9,0000.1,0009.90,0006.33,0006.01
2023-09-11 06:52:00,SystemResetWarning,0837.9,5.01,000.00,028.9,027.7,000.0,037.2,030.5,33.7,0000.2,0009.76,0006.26,0005.92
2023-09-11 06:53:00,SystemResetWarning,0837.9,5.00,000.00,028.9,027.7,000.0,037.2,030.6,33.3,0000.1,0009.57,0006.12,0005.78
2023-09-11 06:54:00,SystemResetWarning,0838.0,5.00,000.00,029.0,027.7,000.0,037.2,030.6,33.3,-000.0,0009.47,0005.95,0005.61
2023-09-11 06:55:00,SystemResetWarning,0837.9,5.00,000.00,029.0,027.7,000.0,037.3,030.6,33.3,0000.1,0009.45,0005.84,0005.49
2023-09-11 06:56:00,SystemResetWarning,0838.0,5.00,000.00,029.0,027.7,000.0,037.3,030.6,33.2,-000.1,0009.38,0005.78,0005.42
2023-09-11 06:57:00,SystemResetWarning,0837.9,5.00,000.00,029.0,027.7,000.0,037.3,030.6,33.0,-000.2,0009.49,0005.83,0005.44
2023-09-11 06:58:00,SystemResetWarning,0838.0,5.00,000.00,029.0,027.8,000.0,037.3,030.6,32.8,0000.1,0009.47,0005.83,0005.44
2023-09-11 06:59:00,SystemResetWarning,0838.0,4.98,000.00,029.0,026.9,000.0,037.3,030.5,32.6,0000.0,0009.46,0005.83,0005.44
